Simultaneous Nadir Overpasses (SNOs) Predictions

Prediction of SNOs over PacNW region [( 10.00, 139.50) to ( 22.70, 165.60)] between AQUA and NPP Satellites:

Table of predicted SNOs over PacNW region for the next 30.0 days since TLE Epoch: 12/14/2013
Index Date (AQUA) Time (AQUA) AQUA Lat,Lon Date (NPP) Time (NPP) NPP Lat,Lon Distance(km) Time Diff (sec)
1 12/15/2013 15:59:59 22.58, 147.35 12/15/2013 16:03:27 24.73, 144.93 342.80 208
2 12/18/2013 02:42:50 22.67, 159.77 12/18/2013 02:39:21 24.97, 157.81 324.21 209
3 12/23/2013 15:10:12 22.59, 159.80 12/23/2013 15:13:20 23.18, 157.21 273.11 188
4 12/26/2013 03:30:47 18.64, 148.45 12/26/2013 03:28:24 18.28, 146.78 180.47 143
5 01/03/2014 02:41:22 20.73, 160.48 01/03/2014 02:38:25 20.42, 158.95 163.01 177
6 01/08/2014 15:09:02 22.58, 160.11 01/08/2014 15:12:30 27.20, 158.25 546.99 208
